Tracking 19245 objects as of 18-Aug-2018
HD Live streaming from Space Station
objects crossing your sky now

NOAA 16 DEB

Track NOAA 16 DEB now!
10-day predictions


NORAD ID: 41047
Int'l Code: 2000-055E
Perigee: 804.3 km
Apogee: 843.1 km
Inclination: 99.1 °
Period: 101.2 minutes
Semi major axis: 7194 km
RCS: Unknown
Launch date: September 21, 2000
Source: United States (US)
Launch site: AIR FORCE WESTERN TEST RANGE (AFWTR)

Note: This is SATELLITE DEBRIS
aabbcc
Your satellite tracking list
Your tracking list is empty




NASA's NSSDC Master Catalog

Two Line Element Set (TLE):
1 41047U 00055E   18229.23336619  .00016591  00000-0  73994-2 0  9997
2 41047  99.0589 325.8028 0026990 183.0727 177.0288 14.22601548141103
Source of the keplerian elements: AFSPC